Weather in Ciudad Bolivar

Venezuela     8°07′04″N   63°32′33″W
temp.,
°C
wind,
m/s
gust,
m/s
humid.,
%
clouds,
%
prec.,
mm/h
press.,
hPa
HPBL,
m
14 may, fri
fri1423:00+28ne5105891 0.0 1013650
02:00+25ene487261 0.0 1012418
05:00+24ene277797 0.0 1013487
08:00+26e476887 0.0 1014763
11:00+31e464699 0.0 10141581
14:00+34ene4535100 0.0 10102635
17:00+34ne253452 0.0 10081659
20:00+31ene6104489 0.0 1010772
15 may, sat
sat1523:00+27ene5106636 0.0 1013707
02:00+25ene3871100 0.0 1012652
05:00+24ne36785 0.0 1013453
08:00+26ene476888 0.0 1014855
11:00+32e464438 0.0 10131898
14:00+33ene4540100 0.0 10101904
17:00+33ne5640100 0.0 10081519
20:00+30ne61055100 0.0 1011874
16 may, sun
sun1623:00+27ene61170100 0.0 1013668
02:00+25ene5107946 0.0 1012698
05:00+24ene398178 0.0 1012692
08:00+27ene5769100 0.0 1014929
11:00+30e5752100 0.0 10141624
14:00+31ne3548100 0.1 10101595
17:00+31ne2549100 0.0 1009554
20:00+29ene255499 0.0 1011187
17 may, mon
mon1723:00+27ene5106590 0.1 1014852
02:00+25ene4107481 0.1 1012680
05:00+24ene397799 0.0 1013593
08:00+26e596577 0.0 1014811
11:00+32ene574388 0.0 10142019
14:00+36e462910 0.0 10092950
17:00+36ne673029 0.0 10082377
20:00+30ne610532 0.0 1012950
18 may, tue
tue1823:00+27ene610650 0.0 1013749
02:00+25ene48765 0.0 1012661
05:00+25ene378475 0.0 1013573
08:00+27e4671100 0.0 1015793
11:00+32e464691 0.0 10142006
14:00+33ene3442100 0.1 10101955
17:00+31ene354797 0.3 1010900
20:00+28ne496426 1.1 1012529